JCSAT-5A

Last updated on Sun Jun 21 2026 00:03:03 GMT+0000 (Coordinated Universal Time)

1 29045U 06010A 26171.48584654 -.00000332 00000+0 00000+0 0 9995 2 29045 1.1192 84.1884 0002010 350.8139 140.6470 1.00271456 73807
UTC large
Height (km)
Speed (km/s)
/
Latitude / Longitude
Inclination (degrees)
Orbital Period (minutes)
Azimuth
Elevation
Range (km)
Doppler Factor

Next 0 passes for location: London (51.5072 / 0.1276)

No passes found over London.
JCSAT-5A